Location: Marstown
(39.5056°N, 77.0820°W)
Time: 10:52:43
(UTC-05:00)

Tiangong - Visible Passes

Search period start: 24 February 2024 00:00
Search period end: 05 March 2024 00:00
Orbit: 375 x 386 km, 41.5° (Epoch: 24 February)

Date Brightness Start Highest point End Pass type
(mag) Time Alt. Az. Time Alt. Az. Time Alt. Az.
26 Feb 0.3 19:48:15 10° SW 19:49:10 17° SSW 19:49:10 17° SSW visible
27 Feb -0.4 18:47:54 10° SSW 18:50:11 19° SSE 18:51:26 15° ESE visible
27 Feb 1.3 20:23:31 10° WSW 20:23:35 10° WSW 20:23:35 10° WSW visible
28 Feb -2.0 19:22:31 10° SW 19:25:33 52° SSE 19:25:41 51° SE visible
29 Feb -0.4 19:57:58 10° W 19:59:47 32° W 19:59:47 32° W visible
01 Mar -2.3 18:56:43 10° WSW 18:59:50 79° SSE 19:01:37 23° ENE visible
01 Mar 1.4 20:33:34 10° W 20:33:45 11° W 20:33:45 11° W visible
02 Mar -2.0 19:32:12 10° W 19:35:16 61° N 19:35:28 59° NNE visible
03 Mar -2.1 18:30:46 10° W 18:33:52 76° NNW 18:36:58 10° ENE visible
03 Mar 0.1 20:07:39 10° WNW 20:09:12 26° WNW 20:09:12 26° WNW visible
04 Mar -1.8 19:06:10 10° W 19:09:14 56° N 19:10:44 26° ENE visible
